Flag for United Kingdom Weather past 2 weeks in Edinburgh, Scotland, United Kingdom

52 °F

Light rain. Low clouds.

Feels Like: 50 °F
Forecast: 42 / 56 °F
Wind: 6 mph from West

Location: Edinburgh Airport

Current Time: Oct 7, 2015 at 5:39:25 PM

Latest Report: Oct 7, 2015 at 5:20 PM

Visibility: N/A

Pressure: 29.80 "Hg

Humidity: 100%

Dew point: 52 °F

Location of EdinburghLocation

Historic Weather in Edinburgh — Graph


Edinburgh temperature yesterday

Maximum temperature yesterday: 63 °F (at 12:20 PM)
Minimum temperature yesterday: 55 °F (at 7:50 AM)
Average temperature yesterday: 58 °F

Past Weeks' High & Low Weather Summary

High68 °F (Sep 29, 2:20 PM)100% (Sep 26, 11:50 PM)30.66 "Hg (Sep 26, 11:50 PM)
Low32 °F (Oct 3, 3:20 AM)52% (Sep 27, 2:50 PM)29.36 "Hg (Oct 6, 9:50 AM)
Average51 °F84%30.10 "Hg
* Reported Sep 22 4:20 PM — Oct 7 4:20 PM, Edinburgh, Weather by CustomWeather, © 2015

Note: Actual official high and low records may vary slightly from our data, if they occured in-between our weather recording intervals... More about our weather records


Edinburgh weather history for previous 24 hours

Time TempWeatherWind HumidityBarometerVisibility
4:20 PM
Wed, Oct 7
52 °FDrizzle. Low clouds.7 mph100%29.80 "Hg2 mi
3:50 PM52 °FDrizzle. Low clouds.7 mph100%29.80 "Hg2 mi
3:20 PM52 °FDrizzle. Low clouds.8 mph100%29.80 "Hg2 mi
2:50 PM52 °FDrizzle. Low clouds.7 mph100%29.77 "Hg2 mi
2:20 PM52 °FDrizzle. Low clouds.8 mph100%29.77 "Hg2 mi
1:50 PM52 °FDrizzle. Low clouds.8 mph100%29.77 "Hg2 mi
1:20 PM52 °FDrizzle. Low clouds.7 mph100%29.77 "Hg2 mi
12:50 PM52 °FDrizzle. Low clouds.9 mph94%29.77 "Hg2 mi
12:20 PM52 °FLow clouds.8 mph94%29.74 "Hg4 mi
11:50 AM52 °FMore clouds than sun.8 mph94%29.74 "HgN/A
11:20 AM52 °FMore clouds than sun.9 mph94%29.74 "HgN/A
10:50 AM52 °FLight rain. Low clouds.10 mph94%29.74 "Hg4 mi
10:20 AM52 °FLight rain. Overcast.8 mph94%29.71 "HgN/A
9:50 AM52 °FOvercast.8 mph94%29.71 "Hg6 mi
9:20 AM52 °FOvercast.8 mph94%29.71 "HgN/A
8:50 AM52 °FPartly sunny.8 mph94%29.71 "HgN/A
8:20 AM52 °FPassing clouds.7 mph94%29.68 "HgN/A
7:50 AM52 °FPassing clouds.7 mph100%29.68 "HgN/A
7:20 AM52 °FPassing clouds.5 mph100%29.65 "HgN/A
6:50 AM52 °FFog.3 mph100%29.65 "Hg2 mi
6:20 AM52 °FFog.3 mph100%29.62 "Hg3 mi
5:50 AM52 °FFog.1 mph100%29.62 "Hg3 mi
5:20 AM50 °FFog.3 mph100%29.62 "Hg3 mi
4:50 AM52 °FFog.5 mph100%29.62 "Hg3 mi
4:20 AM52 °FFog.3 mph100%29.59 "Hg3 mi
3:50 AM48 °FFog.2 mph100%29.59 "Hg1 mi
3:20 AM48 °FFog.1 mph100%29.59 "Hg0 mi
2:50 AM50 °FFog.1 mph94%29.56 "Hg0 mi
2:20 AM48 °FDrizzle. Dense fog.2 mph100%29.56 "Hg0 mi
1:50 AM50 °FFog.2 mph100%29.56 "Hg0 mi
1:20 AM50 °FFog.1 mph100%29.56 "Hg0 mi
12:50 AM54 °FFog.1 mph94%29.53 "Hg0 mi
12:20 AM55 °FFog.1 mph100%29.53 "Hg1 mi
11:50 PM
Tue, Oct 6
55 °FFog.2 mph94%29.53 "Hg1 mi
11:20 PM55 °FFog.3 mph94%29.53 "Hg1 mi
10:20 PM55 °FFog.2 mph100%29.50 "Hg1 mi
9:50 PM55 °FFog.1 mph100%29.50 "Hg1 mi
9:20 PM55 °FPassing clouds.No wind100%29.50 "Hg5 mi
8:50 PM55 °FFog.2 mph100%29.47 "Hg2 mi
8:20 PM55 °FFog.3 mph100%29.47 "Hg3 mi
7:50 PM57 °FMostly cloudy.3 mph94%29.47 "Hg4 mi
7:20 PM55 °FPartly sunny.3 mph100%29.47 "Hg5 mi
6:50 PM55 °FScattered clouds.5 mph100%29.45 "HgN/A
6:20 PM59 °FScattered clouds.3 mph94%29.45 "HgN/A
5:50 PM61 °FScattered clouds.3 mph94%29.45 "HgN/A
5:20 PM61 °FPartly sunny.5 mph94%29.42 "HgN/A
Weather by CustomWeather, © 2015

See weather overviewHow to use our weather pages